Home > Weather > Quesnel > Past weeks

Flag for Canada Past Weather in Quesnel, British Columbia, Canada — Yesterday and Last 2 Weeks

Now
54 °F

Overcast.


Feels Like: 53 °F
Forecast: 44 / 61 °F
Wind: 3 mph from South

Location: Quesnel Airport

Current Time: Aug 28, 2016 at 2:00:59 PM

Latest Report: Aug 28, 2016 at 1:00 PM


Visibility: 9 mi

Pressure: 30.09 "Hg

Humidity: 67%

Dew Point: 43 °F

Location of QuesnelLocation

Past Weather in Quesnel — Graph

°F

Quesnel Temperature Yesterday

Maximum temperature yesterday: 61 °F (at 12:00 AM)
Minimum temperature yesterday: 50 °F (at 5:59 AM)
Average temperature yesterday: 56 °F

High & Low Weather Summary for the Past Weeks

 TemperatureHumidityPressure
High86 °F (Aug 19, 5:00 PM)100% (Aug 14, 5:00 AM)30.44 "Hg (Aug 14, 5:00 AM)
Low41 °F (Aug 18, 5:00 AM)23% (Aug 18, 5:00 PM)29.62 "Hg (Aug 26, 9:00 PM)
Average61 °F71%30.06 "Hg
* Reported Aug 13 1:00 PM — Aug 28 1:00 PM, Quesnel, Weather by CustomWeather, © 2016

Note: Actual official high and low records may vary slightly from our data, if they occured in-between our weather recording intervals... More about our weather records

Advertising

Quesnel Weather History for the Previous 24 Hours

Scroll right to see more
 ConditionsComfort  
Time TempWeatherWind HumidityBarometerVisibility
1:00 PM
Sun, Aug 28
54 °FOvercast.3 mph67%30.09 "Hg9 mi
12:00 PM54 °FMostly cloudy.2 mph67%30.10 "Hg9 mi
11:00 AM52 °FOvercast.5 mph72%30.11 "Hg9 mi
10:00 AM50 °FOvercast.No wind67%30.11 "Hg9 mi
9:00 AM48 °FOvercast.2 mph71%30.10 "Hg9 mi
8:00 AM48 °FOvercast.No wind76%30.09 "Hg9 mi
7:00 AM48 °FOvercast.No wind76%30.09 "Hg9 mi
6:00 AM46 °FOvercast.2 mph82%30.08 "Hg9 mi
5:00 AM46 °FOvercast.No wind87%30.07 "Hg9 mi
4:00 AM48 °FOvercast.3 mph76%30.06 "Hg9 mi
3:00 AM48 °FOvercast.5 mph76%30.04 "Hg9 mi
2:00 AM48 °FOvercast.8 mph76%30.03 "Hg9 mi
1:00 AM50 °FMostly cloudy.6 mph71%30.01 "Hg9 mi
12:00 AM50 °FOvercast.7 mph82%30.00 "Hg9 mi
11:00 PM
Sat, Aug 27
50 °FMostly cloudy.9 mph82%29.98 "Hg9 mi
10:00 PM50 °FOvercast.7 mph88%29.97 "Hg9 mi
9:00 PM52 °FMore clouds than sun.12 mph82%29.95 "Hg9 mi
8:00 PM54 °FMostly cloudy.15 mph77%29.93 "Hg9 mi
7:00 PM57 °FMostly cloudy.12 mph82%29.90 "Hg9 mi
6:00 PM57 °FLight rain. More clouds than sun.6 mph88%29.86 "Hg9 mi
5:51 PM57 °FLight rain. Fog.6 mph88%29.86 "Hg6 mi
5:00 PM57 °FPartly sunny.8 mph88%29.84 "Hg9 mi
4:01 PM57 °FLight rain. Fog.3 mph88%29.82 "Hg6 mi
3:54 PM57 °FLight rain. Fog.No wind88%29.81 "Hg5 mi
3:00 PM57 °FLight rain. Cloudy.No wind88%29.79 "Hg9 mi
2:00 PM57 °FLight rain. Overcast.2 mph88%29.79 "Hg9 mi
Weather by CustomWeather, © 2016

See weather overviewHow to use our weather pages